Location: ????
(30.2663°N, 31.2484°E)
Time: 03:07:44
(UTC+00:00)

GP-B - Pass Details

Date: 27 September 2022
Orbit: 630 x 633 km, 89.8° (Epoch: 01 December)

Event Time Altitude Azimuth Distance (km) Brightness Sun altitude
Rises 02:17:05 0° 161° (SSE) 2,905 6.6 -19.9°
Reaches altitude 10° 02:19:23 10° 154° (SSE) 2,002 5.9 -19.5°
Maximum altitude 02:23:32 42° 83° (E) 904 4.4 -18.6°
Drops below altitude 10° 02:27:42 10° 13° (NNE) 2,014 6.0 -17.7°
Sets 02:30:00 0° 7° (N) 2,926 6.7 -17.2°
